Regional Weather Roundup
Issued by NWS Sioux Falls, SD

Home | Current Version | Previous Version | Text Only | Print | Product List | Glossary Off
Versions: 1 2 3 4 5 6 7 8 9 10 11 12 13 14 15 16 17 18 19 20 21 22 23 24 25 26 27 28 29 30 31 32 33 34 35 36 37 38 39 40 41 42 43 44 45 46 47 48 49 50

000
ASUS43 KFSD 010410
RWRFSD

WEATHER ROUNDUP FOR SE SOUTH DAKOTA/SW MINNESOTA/NW IOWA
NATIONAL WEATHER SERVICE SIOUX FALLS SD
1100 PM CDT MON AUG 31 2015

NOTE: "FAIR" INDICATES FEW OR NO CLOUDS BELOW 12,000 FEET WITH NO
SIGNIFICANT WEATHER AND OR OBSTRUCTIONS TO VISIBILITY.


SDZ038>040-050-052>070-010500-
SOUTHEAST SOUTH DAKOTA

CITY           SKY/WX    TMP DP  RH WIND       PRES   REMARKS
BROOKINGS      PTCLDY    72  68  88 S7        29.92S
CHAMBERLAIN    MOCLDY    69  64  82 NE3       29.92R
HURON          MOCLDY    65  64  97 NW7       29.89S
MADISON        FAIR      70  70 100 S6        29.91S
MITCHELL       PTCLDY    69  67  93 NW5       29.90R
SIOUX FALLS    CLOUDY    74  69  85 S12       29.90S
WINNER         FAIR      71  62  73 NE5       29.93S
YANKTON        CLEAR     73  68  83 SE3       29.89R
$$

MNZ071-072-080-081-089-090-097-098-010500-
SOUTHWEST MINNESOTA

CITY           SKY/WX    TMP DP  RH WIND       PRES   REMARKS
FAIRMONT       CLEAR     66  61  82 S7        29.92F
JACKSON        CLEAR     70  66  88 S6        29.95R
LUVERNE        CLEAR     70  66  88 CALM      29.93R FOG
MARSHALL       PTCLDY    73  66  78 SW12      29.90S
MONTEVIDEO     PTCLDY    73  70  88 SW6       29.89S
PIPESTONE      CLEAR     72  68  88 S7        29.92S
REDWOOD FALLS  CLEAR     72  67  84 S9        29.89S
TRACY          CLEAR     73  69  87 S9        29.90F
WINDOM         CLEAR     72  64  78 CALM      29.93S
WORTHINGTON    CLEAR     70  64  83 S9        29.94R
$$

IAZ001>003-012>014-020>022-031-032-NEZ013-014-SDZ071-010500-
NORTHWEST IOWA

CITY           SKY/WX    TMP DP  RH WIND       PRES   REMARKS
CHEROKEE       CLEAR     69  68  97 S3        29.93F
DENISON        CLOUDY    70  66  88 SE3       29.92S
ESTHERVILLE    CLEAR     64  64 100 S6        29.93S
LE MARS        CLEAR     70  68  94 S5        29.93R
ORANGE CITY    CLEAR     72  68  88 S5        29.93S
SHELDON        PTCLDY    70  68  94 S5        29.92S
SIOUX CITY     CLEAR     72  67  84 SE8       29.91R
SPENCER        CLEAR     69  64  84 S7        29.94R
STORM LAKE     CLEAR     66  66 100 S6        29.96S
$$

ABBREVIATIONS USED IN REMARKS
   TC - TEMPERATURE IN CELSIUS
  WCI - WIND CHILL INDEX
   HX - HEAT INDEX
  VSB - VISIBILITY




USA.gov is the U.S. government's official web portal to all federal, state and local government web resources and services.